Regional Weather Roundup
Issued by NWS Sioux Falls, SD

Home | Current Version | Previous Version | Graphics & Text | Print | Product List | Glossary Off
Versions: 1 2 3 4 5 6 7 8 9 10 11 12 13 14 15 16 17 18 19 20 21 22 23 24 25 26 27 28 29 30 31 32 33 34 35 36 37 38 39 40 41 42 43 44 45 46 47 48 49 50

000
ASUS43 KFSD 241410
RWRFSD

WEATHER ROUNDUP FOR SE SOUTH DAKOTA/SW MINNESOTA/NW IOWA
NATIONAL WEATHER SERVICE SIOUX FALLS SD
900 AM CDT FRI OCT 24 2014

NOTE: "FAIR" INDICATES FEW OR NO CLOUDS BELOW 12,000 FEET WITH NO
SIGNIFICANT WEATHER AND OR OBSTRUCTIONS TO VISIBILITY.


SDZ038>040-050-052>070-241500-
SOUTHEAST SOUTH DAKOTA

CITY           SKY/WX    TMP DP  RH WIND       PRES   REMARKS
CHAMBERLAIN    CLOUDY    44  38  79 W5        29.90R
HURON          CLOUDY    40  37  89 CALM      29.88R
MADISON        FAIR      45  45 100 W5        29.88R
MITCHELL       CLOUDY    44  41  89 W3        29.89R
SIOUX FALLS    CLOUDY    50  49  96 W5        29.88R FOG
YANKTON        CLOUDY    54  48  82 W7        29.89R
$$

MNZ071-072-080-081-089-090-097-098-241500-
SOUTHWEST MINNESOTA

CITY           SKY/WX    TMP DP  RH WIND       PRES   REMARKS
FAIRMONT       PTSUNNY   52  46  82 S8        29.87R
JACKSON        PTSUNNY   55  52  88 SW13      29.86R
LUVERNE        CLOUDY    46  45  93 CALM      29.88R FOG
MARSHALL       PTSUNNY   50  45  81 NW7       29.85R
MONTEVIDEO     PTSUNNY   46  46 100 CALM      29.85S
PIPESTONE        N/A     48  46  93 CALM      29.87R FOG
REDWOOD FALLS  PTSUNNY   46  43  89 SE5       29.85R
TRACY          PTSUNNY   53  50  90 W7        29.86R
WINDOM         PTSUNNY   54  50  87 SW7       29.86R
WORTHINGTON    CLOUDY    54  50  87 SW10      29.87R
$$

IAZ001>003-012>014-020>022-031-032-NEZ013-014-SDZ071-241500-
NORTHWEST IOWA

CITY           SKY/WX    TMP DP  RH WIND       PRES   REMARKS
CHEROKEE       PTSUNNY   56  56 100 S8        29.88S FOG
DENISON        CLOUDY    59  59 100 S10G17    29.89S FOG
ESTHERVILLE    MOSUNNY   50  49  96 S9        29.86S FOG
LE MARS        CLOUDY    54  54 100 S7        29.89R FOG
ORANGE CITY    CLOUDY    54  52  94 SW6       29.88R FOG
SHELDON        PTSUNNY   54  54 100 SW9       29.86R FOG
SIOUX CITY     CLOUDY    52  50  93 SE3       29.90R
SPENCER        PTSUNNY   56  54  93 SW12      29.87S
STORM LAKE     PTSUNNY   57  55  94 SW13      29.90R FOG
$$

ABBREVIATIONS USED IN REMARKS
   TC - TEMPERATURE IN CELSIUS
  WCI - WIND CHILL INDEX
   HX - HEAT INDEX
  VSB - VISIBILITY




USA.gov is the U.S. government's official web portal to all federal, state and local government web resources and services.